TimeCDT,TemperatureF,Dew PointF,Humidity,Sea Level PressureIn,VisibilityMPH,Wind Direction,Wind SpeedMPH,Gust SpeedMPH,PrecipitationIn,Events,Conditions,WindDirDegrees,DateUTC
12:14 AM,66.2,53.6,64,29.75,10.0,SSE,10.4,-,N/A,,Clear,160,2013-09-23 05:14:00
12:34 AM,64.4,53.6,68,29.75,10.0,SSE,10.4,-,N/A,,Clear,150,2013-09-23 05:34:00
12:53 AM,64.4,53.6,68,29.75,10.0,SSE,10.4,-,N/A,,Clear,150,2013-09-23 05:53:00
1:14 AM,62.6,53.6,72,29.75,10.0,SSE,10.4,-,N/A,,Clear,150,2013-09-23 06:14:00
1:34 AM,62.6,53.6,72,29.75,10.0,SSE,11.5,16.1,N/A,,Clear,150,2013-09-23 06:34:00
1:53 AM,62.6,53.6,72,29.76,10.0,SSE,10.4,-,N/A,,Clear,150,2013-09-23 06:53:00
2:14 AM,62.6,53.6,72,29.76,10.0,SSE,9.2,-,N/A,,Clear,150,2013-09-23 07:14:00
2:34 AM,62.6,53.6,72,29.75,10.0,SSE,11.5,-,N/A,,Clear,150,2013-09-23 07:34:00
2:53 AM,62.6,53.6,72,29.75,10.0,SSE,11.5,-,N/A,,Clear,150,2013-09-23 07:53:00
3:14 AM,62.6,53.6,72,29.75,10.0,SSE,11.5,-,N/A,,Clear,150,2013-09-23 08:14:00
3:34 AM,60.8,53.6,77,29.75,10.0,SSE,11.5,-,N/A,,Clear,150,2013-09-23 08:34:00
3:53 AM,60.8,53.6,77,29.75,10.0,SSE,10.4,-,N/A,,Clear,150,2013-09-23 08:53:00
4:14 AM,60.8,53.6,77,29.75,10.0,SSE,9.2,-,N/A,,Clear,150,2013-09-23 09:14:00
4:34 AM,60.8,53.6,77,29.76,10.0,SSE,9.2,-,N/A,,Clear,150,2013-09-23 09:34:00
4:53 AM,60.8,53.6,77,29.76,10.0,SSE,10.4,-,N/A,,Clear,150,2013-09-23 09:53:00
5:14 AM,60.8,53.6,77,29.75,10.0,SE,10.4,-,N/A,,Clear,140,2013-09-23 10:14:00
5:34 AM,60.8,51.8,72,29.75,10.0,SSE,10.4,-,N/A,,Clear,150,2013-09-23 10:34:00
5:53 AM,60.8,51.8,72,29.75,10.0,SE,10.4,-,N/A,,Clear,140,2013-09-23 10:53:00
6:14 AM,60.8,51.8,72,29.76,10.0,SSE,10.4,-,N/A,,Clear,150,2013-09-23 11:14:00
6:33 AM,60.8,51.8,72,29.76,10.0,SE,11.5,-,N/A,,Clear,140,2013-09-23 11:33:00
6:53 AM,59.0,51.8,77,29.77,10.0,SSE,11.5,17.3,N/A,,Clear,150,2013-09-23 11:53:00
7:14 AM,59.0,51.8,77,29.77,10.0,SSE,12.7,-,N/A,,Clear,150,2013-09-23 12:14:00
7:33 AM,59.0,51.8,77,29.77,10.0,SSE,13.8,19.6,N/A,,Clear,150,2013-09-23 12:33:00
7:54 AM,59.0,51.8,77,29.77,10.0,SSE,12.7,20.7,N/A,,Clear,150,2013-09-23 12:54:00
8:13 AM,60.8,51.8,72,29.77,10.0,SSE,16.1,20.7,N/A,,Clear,150,2013-09-23 13:13:00
8:34 AM,60.8,51.8,72,29.78,10.0,SSE,12.7,19.6,N/A,,Clear,150,2013-09-23 13:34:00
8:54 AM,60.8,51.8,72,29.77,10.0,SSE,17.3,24.2,N/A,,Clear,150,2013-09-23 13:54:00
9:13 AM,62.6,51.8,68,29.77,10.0,SSE,15.0,20.7,N/A,,Clear,150,2013-09-23 14:13:00
9:34 AM,62.6,51.8,68,29.77,10.0,SSE,16.1,21.9,N/A,,Clear,160,2013-09-23 14:34:00
9:54 AM,64.4,51.8,64,29.77,10.0,SSE,15.0,23.0,N/A,,Clear,160,2013-09-23 14:54:00
10:13 AM,66.2,51.8,60,29.77,10.0,SSE,18.4,23.0,N/A,,Clear,160,2013-09-23 15:13:00
10:34 AM,69.8,51.8,53,29.77,10.0,South,17.3,26.5,N/A,,Clear,170,2013-09-23 15:34:00
10:54 AM,71.6,51.8,50,29.77,10.0,SSE,18.4,26.5,N/A,,Clear,160,2013-09-23 15:54:00
11:13 AM,73.4,51.8,47,29.76,10.0,South,16.1,26.5,N/A,,Clear,170,2013-09-23 16:13:00
11:34 AM,73.4,51.8,47,29.76,10.0,SSE,17.3,27.6,N/A,,Clear,160,2013-09-23 16:34:00
11:54 AM,75.2,51.8,44,29.76,10.0,South,21.9,26.5,N/A,,Clear,170,2013-09-23 16:54:00
12:13 PM,75.2,50.0,41,29.76,10.0,SSE,17.3,28.8,N/A,,Clear,160,2013-09-23 17:13:00
12:34 PM,77.0,51.8,41,29.75,10.0,SSE,15.0,25.3,N/A,,Clear,150,2013-09-23 17:34:00
12:54 PM,78.8,50.0,36,29.75,10.0,South,17.3,28.8,N/A,,Clear,170,2013-09-23 17:54:00
1:13 PM,78.8,50.0,36,29.74,10.0,South,17.3,25.3,N/A,,Clear,170,2013-09-23 18:13:00
1:34 PM,78.8,50.0,36,29.74,10.0,South,18.4,27.6,N/A,,Clear,170,2013-09-23 18:34:00
1:54 PM,80.6,48.2,32,29.73,10.0,SSE,21.9,31.1,N/A,,Clear,160,2013-09-23 18:54:00
2:13 PM,80.6,50.0,34,29.73,10.0,SSE,18.4,27.6,N/A,,Clear,160,2013-09-23 19:13:00
2:33 PM,80.6,48.2,32,29.72,10.0,South,20.7,28.8,N/A,,Clear,170,2013-09-23 19:33:00
2:54 PM,80.6,50.0,34,29.72,10.0,SSE,17.3,26.5,N/A,,Clear,160,2013-09-23 19:54:00
3:13 PM,80.6,48.2,32,29.73,10.0,SSE,17.3,24.2,N/A,,Clear,160,2013-09-23 20:13:00
3:33 PM,82.4,46.4,28,29.73,10.0,South,20.7,27.6,N/A,,Clear,170,2013-09-23 20:33:00
3:54 PM,80.6,48.2,32,29.74,10.0,SSE,20.7,26.5,N/A,,Clear,160,2013-09-23 20:54:00
4:13 PM,80.6,50.0,34,29.74,10.0,SSE,16.1,26.5,N/A,,Clear,160,2013-09-23 21:13:00
4:33 PM,80.6,48.2,32,29.74,10.0,South,15.0,26.5,N/A,,Clear,170,2013-09-23 21:33:00
4:53 PM,80.6,48.2,32,29.74,10.0,SSE,17.3,27.6,N/A,,Clear,160,2013-09-23 21:53:00
5:13 PM,80.6,48.2,32,29.74,10.0,South,19.6,25.3,N/A,,Clear,170,2013-09-23 22:13:00
5:34 PM,80.6,48.2,32,29.75,10.0,SSE,16.1,23.0,N/A,,Clear,160,2013-09-23 22:34:00
5:53 PM,80.6,48.2,32,29.75,10.0,SSE,16.1,21.9,N/A,,Clear,150,2013-09-23 22:53:00
6:14 PM,78.8,48.2,34,29.75,10.0,SSE,12.7,17.3,N/A,,Clear,150,2013-09-23 23:14:00
6:34 PM,77.0,50.0,39,29.76,10.0,SE,11.5,-,N/A,,Clear,140,2013-09-23 23:34:00
6:53 PM,73.4,51.8,47,29.76,10.0,SE,9.2,-,N/A,,Clear,140,2013-09-23 23:53:00
7:14 PM,73.4,51.8,47,29.77,10.0,SE,10.4,-,N/A,,Clear,140,2013-09-24 00:14:00
7:34 PM,71.6,50.0,46,29.77,10.0,SSE,10.4,-,N/A,,Clear,150,2013-09-24 00:34:00
7:53 PM,69.8,51.8,53,29.78,10.0,SE,8.1,-,N/A,,Clear,140,2013-09-24 00:53:00
8:14 PM,69.8,51.8,53,29.79,10.0,SE,9.2,-,N/A,,Clear,140,2013-09-24 01:14:00
8:34 PM,68.0,51.8,56,29.79,10.0,SE,8.1,-,N/A,,Clear,140,2013-09-24 01:34:00
8:53 PM,66.2,51.8,60,29.79,10.0,SE,9.2,-,N/A,,Clear,130,2013-09-24 01:53:00
9:14 PM,66.2,51.8,60,29.80,10.0,SE,10.4,-,N/A,,Clear,140,2013-09-24 02:14:00
9:33 PM,64.4,51.8,64,29.80,10.0,SE,8.1,-,N/A,,Clear,140,2013-09-24 02:33:00
9:54 PM,62.6,51.8,68,29.81,10.0,SE,6.9,-,N/A,,Clear,140,2013-09-24 02:54:00
10:14 PM,62.6,51.8,68,29.82,10.0,SSE,5.8,-,N/A,,Clear,150,2013-09-24 03:14:00
10:33 PM,62.6,51.8,68,29.83,10.0,SSE,5.8,-,N/A,,Clear,150,2013-09-24 03:33:00
10:54 PM,60.8,51.8,72,29.84,10.0,SSE,5.8,-,N/A,,Clear,160,2013-09-24 03:54:00
11:14 PM,60.8,51.8,72,29.85,10.0,SE,6.9,-,N/A,,Clear,140,2013-09-24 04:14:00
11:33 PM,60.8,51.8,72,29.85,10.0,SSE,5.8,-,N/A,,Clear,150,2013-09-24 04:33:00
11:53 PM,60.8,51.8,72,29.85,10.0,SSE,6.9,-,N/A,,Clear,150,2013-09-24 04:53:00